CZ-2D DEB, 43402

Orbit data source: Space-Track

CZ-2D DEB, 43402 is space debris in SSO originally from a launch on Sat, 29 Sep 2012 UTC launched from the Jiuquan Satellite Launch Center, China (JSC). Debris objects in space refer to the collection of defunct objects orbiting the Earth. Examples of debris include non-operational satellites, rocket bodies, and fragments generated from explosions, collisions, or faulty payload assembly.

Loading next visibility...
Identifier
43402, 2012-052B
Orbit
SSO
Country
Flag of CNCN / PRC
Related business
Manufacturer
SAST
Mission
Spacecraft
Bus & Motor
Unknown
Mass
Unknown
Launch date (UTC)
2012-09-29 (13 years ago)
Launch vehicle
Unknown
Launch site
Jiuquan Satellite Launch Center, China (JSC)
Object type
Payload
Rocket body
Debris
Shape & HBR
Unknown shape, 0.1 m
Radar Cross Section
Small (<0.1 m²)

Expand to show TLE details & history
Last TLE update: 21 hours ago

TLE from 21 hours ago
0 CZ-2D DEB
1 43402U 12052B   25340.74589767  .00005986  00000-0  15430-2 0  9993
2 43402  98.0815  83.4413 0206337 268.8348  88.9196 14.38424449627097
Epoch: 2025-12-06T17:54Z
TLE epoch observation values (Epoch: 2025-12-06T17:54:05.558Z)
Latitude
-0.00005°
Longitude
99.14893°
Altitude
766.931 km
Speed
7.471 km/s
True Right ascension
05h 33m 45s
True Declination
0° 00' 00"
Sunlit
Object was in full shadow at epoch
Visualization orbit readout
Latitude
Unknown
Longitude
Unknown
Altitude
Unknown
Speed
Unknown
Apparent Right ascension
Unknown
Apparent Declination
Unknown
Sunlit
N/A
Visualization observer readout
Local Sidereal Time
13:17:41
Azimuth
Unknown
Elevation
Unknown
Doppler factor
Unknown
Orbital elements
Apogee altitude
908.115 km
Perigee altitude
613.509 km
Semi-major axis
7,138.949 km
Eccentricity
0.02063
Inclination
98.0815°
RAAN
83.4413°
Arg. of periapsis
268.8348°
True anomaly
91.28411°
Mean anomaly
88.9196°
Eccentric anomaly
90.10182°
Mean motion
3.59825 °/min
Orbital period
100.05 mins
BSTAR
0.001543
Loading maneuver chart data...
Computing Atmospheric mass density...
Loading historical data...
Loading historical data...
Loading historical data...
Loading historical data...
Loading historical data...
Loading historical data...
Loading historical data...
Other satellites on launch #52 in the year 2012 (2012-09-29 UTC)

Documentation

Showing up to 5 results
|